DLH1905 EDDG-EDDL

Flight info

Callsign DLH1905
Flight time 0h 16m
Altitude 14000
Route DOMEG3Z DOMEG T846 HALME HALME1A
Aircraft A333/H-SDE3GHIJ2J3J5M1RVWXY/LB2D1

Departure

Time 2026-04-18 04:10
Airport Münster Osnabrück Airport (EDDG)

Arrival

Time 2026-04-18 04:27
Airport Düsseldorf Airport (EDDL)
Time Latitude Longitude Altitude Speed Heading
2026-04-18 03:55 52.13144 7.69224 175 ft 0 kts 187°
2026-04-18 04:05 52.13155 7.69227 175 ft 2 kts 169°
2026-04-18 04:06 52.13167 7.69219 175 ft 2 kts 129°
2026-04-18 04:06 52.13172 7.69206 175 ft 2 kts 110°
2026-04-18 04:06 52.13174 7.69195 175 ft 2 kts 95°
2026-04-18 04:07 52.13175 7.69181 175 ft 0 kts 77°
2026-04-18 04:07 52.13179 7.69191 175 ft 8 kts 58°
2026-04-18 04:07 52.13236 7.69353 175 ft 24 kts 72°
2026-04-18 04:08 52.13334 7.69525 176 ft 21 kts 333°
2026-04-18 04:08 52.13365 7.69299 175 ft 22 kts 299°
2026-04-18 04:08 52.13486 7.69347 175 ft 24 kts 65°
2026-04-18 04:08 52.13534 7.69637 176 ft 31 kts 72°
2026-04-18 04:09 52.13613 7.69995 176 ft 30 kts 68°
2026-04-18 04:09 52.13648 7.70047 176 ft 0 kts
2026-04-18 04:09 52.13665 7.70043 176 ft 10 kts 350°
2026-04-18 04:09 52.13763 7.69966 175 ft 20 kts 300°
2026-04-18 04:10 52.13709 7.69636 176 ft 64 kts 250°
2026-04-18 04:10 52.13471 7.68529 175 ft 138 kts 251°
2026-04-18 04:10 52.13101 7.66804 392 ft 174 kts 251°
2026-04-18 04:10 52.12693 7.64912 1022 ft 177 kts 251°
2026-04-18 04:11 52.12141 7.63025 1503 ft 197 kts 225°
2026-04-18 04:11 52.10932 7.61939 2243 ft 207 kts 188°
2026-04-18 04:11 52.09222 7.62157 2627 ft 240 kts 167°
2026-04-18 04:11 52.05940 7.62910 4463 ft 241 kts 179°
2026-04-18 04:12 52.00800 7.62737 5015 ft 243 kts 185°
2026-04-18 04:12 51.94127 7.61926 5006 ft 244 kts 186°
2026-04-18 04:12 51.89973 7.54592 5019 ft 237 kts 238°
2026-04-18 04:12 51.85859 7.46169 5004 ft 239 kts 229°
2026-04-18 04:13 51.81344 7.38276 5000 ft 240 kts 227°
2026-04-18 04:13 51.76755 7.30473 4999 ft 239 kts 227°
2026-04-18 04:13 51.72152 7.22697 5003 ft 240 kts 227°
2026-04-18 04:13 51.66709 7.17188 5014 ft 243 kts 197°
2026-04-18 04:14 51.60301 7.13729 5000 ft 239 kts 201°
2026-04-18 04:14 51.54188 7.10036 4974 ft 230 kts 209°
2026-04-18 04:14 51.51607 7.03853 4967 ft 215 kts 238°
2026-04-18 04:14 51.50018 7.00081 4798 ft 197 kts 235°
2026-04-18 04:15 51.48480 6.96648 4543 ft 185 kts 234°
2026-04-18 04:15 51.46955 6.93327 4070 ft 184 kts 234°
2026-04-18 04:15 51.45418 6.90023 3607 ft 184 kts 233°
2026-04-18 04:15 51.43883 6.86748 3132 ft 182 kts 233°
2026-04-18 04:16 51.42339 6.83470 3036 ft 181 kts 233°
2026-04-18 04:16 51.40874 6.80368 3022 ft 175 kts 233°
2026-04-18 04:16 51.39407 6.77268 3020 ft 170 kts 233°
2026-04-18 04:16 51.37984 6.74266 3043 ft 169 kts 233°
2026-04-18 04:17 51.36581 6.71311 3012 ft 168 kts 233°
2026-04-18 04:17 51.35193 6.68390 3026 ft 161 kts 233°
2026-04-18 04:17 51.33851 6.65572 3045 ft 156 kts 233°
2026-04-18 04:17 51.31772 6.61207 3017 ft 156 kts 233°
2026-04-18 04:18 51.29149 6.55715 3015 ft 157 kts 233°
2026-04-18 04:18 51.27714 6.53087 2983 ft 157 kts 210°
2026-04-18 04:18 51.25572 6.52467 3030 ft 157 kts 187°
2026-04-18 04:18 51.23416 6.52024 3019 ft 155 kts 182°
2026-04-18 04:19 51.22068 6.53362 3043 ft 159 kts 117°
2026-04-18 04:19 51.21566 6.54897 3028 ft 161 kts 101°
2026-04-18 04:19 51.21192 6.56590 2939 ft 156 kts 110°
2026-04-18 04:19 51.20836 6.58194 2618 ft 155 kts 110°
2026-04-18 04:20 51.20744 6.59888 2496 ft 159 kts 66°
2026-04-18 04:20 51.21322 6.61342 2278 ft 155 kts 44°
2026-04-18 04:20 51.22004 6.62676 2121 ft 154 kts 52°
2026-04-18 04:20 51.22644 6.64042 1902 ft 149 kts 53°
2026-04-18 04:21 51.23256 6.65329 1742 ft 142 kts 51°
2026-04-18 04:21 51.23851 6.66572 1555 ft 139 kts 52°
2026-04-18 04:21 51.24433 6.67791 1376 ft 137 kts 52°
2026-04-18 04:21 51.25008 6.68999 1192 ft 136 kts 52°
2026-04-18 04:22 51.25576 6.70191 1070 ft 135 kts 52°
2026-04-18 04:22 51.26020 6.71118 873 ft 133 kts 54°
2026-04-18 04:22 51.26267 6.71661 770 ft 132 kts 55°
2026-04-18 04:22 51.26825 6.72817 580 ft 131 kts 52°
2026-04-18 04:23 51.27372 6.73948 402 ft 130 kts 53°
2026-04-18 04:23 51.27920 6.75093 227 ft 129 kts 54°
2026-04-18 04:23 51.28447 6.76214 138 ft 114 kts 50°
2026-04-18 04:23 51.28855 6.77075 148 ft 86 kts 52°
2026-04-18 04:24 51.29184 6.77754 155 ft 57 kts 52°
2026-04-18 04:24 51.28134 6.75548 166 ft 129 kts 54°
2026-04-18 04:24 51.28219 6.75731 147 ft 129 kts 54°
2026-04-18 04:24 51.28624 6.76578 146 ft 100 kts 54°
2026-04-18 04:25 51.27761 6.74744 251 ft 119 kts 55°
2026-04-18 04:25 51.28219 6.75727 182 ft 112 kts 57°
2026-04-18 04:25 51.27956 6.75167 236 ft 136 kts 53°
2026-04-18 04:25 51.28513 6.76366 142 ft 123 kts 52°
2026-04-18 04:26 51.28978 6.77337 147 ft 92 kts 51°
2026-04-18 04:26 51.27942 6.75139 229 ft 129 kts 54°
2026-04-18 04:26 51.28477 6.76270 144 ft 117 kts 54°
2026-04-18 04:26 51.28932 6.77208 149 ft 97 kts 52°
2026-04-18 04:27 51.29252 6.77887 155 ft 48 kts 53°
2026-04-18 04:27 51.28229 6.75749 160 ft 130 kts 54°
2026-04-18 04:27 51.28720 6.76787 151 ft 106 kts 52°
2026-04-18 04:27 51.28953 6.77250 148 ft 96 kts 53°